Flag for U.S.A. Weather past 2 weeks in Glendale, Arizona, U.S.A.

Now
71 °F

Clear.


Feels Like: 76 °F
Forecast: 69 / 94 °F
Wind: No wind

Location: Phoenix-Deer Valley Municipal Airport


UV Index: 7 (High)

Visibility: 10 mi


Pressure: 29.93 "Hg

Humidity: 26%

Dew point: 34 °F

Location of GlendaleLocation

Historic Weather in Glendale

°F

Glendale temperature yesterday

Maximum temperature yesterday: 88 °F (at 2:53 PM)
Minimum temperature yesterday: 65 °F (at 5:53 AM)
Average temperature yesterday: 76 °F

Past Weeks' High & Low Weather Summary

 TemperatureHumidityPressure
High94 °F (Apr 10, 3:53 PM)48% (Apr 19, 5:53 AM)30.10 "Hg (Apr 19, 5:53 AM)
Low53 °F (Apr 6, 2:53 AM)3% (Apr 10, 3:53 PM)29.61 "Hg (Apr 12, 4:53 PM)
Average74 °F15%29.85 "Hg
* Reported Apr 6 12:53 AM — Apr 21 12:53 AM, Glendale, Weather by CustomWeather, © 2014

Note: Actual official high and low records may vary slightly from our data, if they occured in-between our weather recording intervals... More about our weather records

Advertising

Historic Weather Conditions — Data for Previous 24 hours

 ConditionsComfort  
Time TempWeatherWind HumidityBarometerVisibility
12:53 AM
Apr 21
73 °FClear.6 mph24%29.93 "Hg10 mi
11:53 PM
Apr 20
71 °FClear.No wind26%29.93 "Hg10 mi
10:53 PM71 °FClear.No wind25%29.92 "Hg10 mi
9:53 PM76 °FClear.No wind20%29.92 "Hg10 mi
8:53 PM80 °FClear.No wind17%29.90 "Hg10 mi
7:53 PM82 °FClear.3 mph16%29.89 "Hg10 mi
6:53 PM85 °FSunny.9 mph15%29.87 "Hg10 mi
5:53 PM87 °FSunny.9 mph14%29.87 "Hg10 mi
4:53 PM87 °FSunny.9 mph15%29.86 "Hg10 mi
3:53 PM86 °FSunny.3 mph16%29.88 "Hg10 mi
2:53 PM88 °FSunny.7 mph16%29.90 "Hg10 mi
1:53 PM85 °FSunny.5 mph18%29.92 "Hg10 mi
12:53 PM83 °FSunny.3 mph22%29.94 "Hg10 mi
11:53 AM81 °FSunny.3 mph24%29.97 "Hg10 mi
10:53 AM78 °FSunny.No wind25%29.99 "Hg10 mi
9:53 AM77 °FSunny.6 mph29%30.00 "Hg10 mi
8:53 AM74 °FSunny.6 mph33%29.99 "Hg10 mi
7:53 AM70 °FSunny.5 mph37%29.98 "Hg10 mi
6:53 AM67 °FSunny.6 mph39%29.98 "Hg10 mi
5:53 AM65 °FSunny.7 mph42%29.95 "Hg10 mi
4:53 AM66 °FClear.7 mph40%29.93 "Hg10 mi
3:53 AM67 °FClear.8 mph39%29.92 "Hg10 mi
2:53 AM67 °FClear.3 mph39%29.92 "Hg10 mi
Weather by CustomWeather, © 2014

See weather overview